Location: Quedlinburg
(51.7921°N, 11.1414°E)
Time: 08:28:33
(UTC+01:00)

ISS - Visible Passes

Search period start: 01 December 2021 00:00
Search period end: 11 December 2021 00:00
Orbit: 417 x 423 km, 51.6° (Epoch: 01 December)

Date Brightness Start Highest point End Pass type
(mag) Time Alt. Az. Time Alt. Az. Time Alt. Az.
01 Dec -3.7 17:07:54 10° W 17:11:19 90° ENE 17:14:26 12° E visible
01 Dec -2.7 18:44:45 10° W 18:47:25 44° WSW 18:47:25 44° WSW visible
02 Dec -3.5 17:57:33 10° W 18:00:56 68° SSW 18:02:15 34° ESE visible
02 Dec -0.4 19:34:40 10° W 19:35:15 13° W 19:35:15 13° W visible
03 Dec -3.6 17:10:21 10° W 17:13:45 80° S 17:17:09 10° ESE visible
03 Dec -2.1 18:47:18 10° W 18:50:10 30° SW 18:50:10 30° SW visible
04 Dec -2.6 18:00:01 10° W 18:03:14 41° SSW 18:05:12 20° SE visible
05 Dec -3.0 17:12:46 10° W 17:16:05 54° SSW 17:19:25 10° ESE visible
05 Dec -1.1 18:50:16 10° WSW 18:52:23 16° SW 18:53:26 14° SSW visible
06 Dec -1.3 18:02:39 10° W 18:05:21 22° SW 18:08:02 10° SSE visible
07 Dec -1.8 17:15:14 10° W 17:18:15 30° SSW 17:21:16 10° SSE visible
08 Dec -0.3 18:06:31 10° SW 18:07:15 11° SW 18:07:59 10° SSW visible
09 Dec -0.6 17:18:08 10° WSW 17:20:14 15° SW 17:22:19 10° S visible
